Regional Weather Roundup
Issued by NWS

Home | Current Version | Previous Version | Graphics & Text | Print | Product List | Glossary On
Versions: 1 2 3 4 5 6 7 8 9 10 11 12 13 14 15 16 17 18 19 20 21 22 23 24 25 26 27 28 29 30 31 32 33 34 35 36 37 38 39 40 41 42 43 44 45 46 47 48 49 50
000
ASUS43 KFSD 280110
RWRSD

WEATHER ROUNDUP FOR SOUTH DAKOTA
NATIONAL WEATHER SERVICE SIOUX FALLS SD
700 PM CST THU NOV 27 2014

NOTE: "FAIR" INDICATES FEW OR NO CLOUDS BELOW 12,000 FEET WITH NO
SIGNIFICANT WEATHER AND/OR OBSTRUCTIONS TO VISIBILITY.


SDZ001>005-009-010-012>017-280200-
NORTHWEST AND NORTH CENTRAL SOUTH DAKOTA

CITY           SKY/WX    TMP DP  RH WIND       PRES   REMARKS
BUFFALO          N/A     26  22  84 S8        29.76F WCI  18
FAITH            N/A     25  18  74 S9        29.87F WCI  15
MOBRIDGE       CLOUDY    17  11  77 SE15      29.93F WCI   2
$$

SDZ012>016-024>037-041>051-057-063-072>074-280200-
SOUTHWEST AND SOUTH CENTRAL SOUTH DAKOTA

CITY           SKY/WX    TMP DP  RH WIND       PRES   REMARKS
RAPID CTY ARPT CLEAR     28  24  85 CALM      29.87S
PIERRE         CLOUDY    25  16  68 SE17      29.93F WCI  12
CUSTER         CLEAR     39  24  55 CALM      29.95R
ELLSWORTH AFB  CLEAR     29  26  87 W6        29.86S WCI  23
PHILIP         MOCLDY    30  22  72 NE6       29.89F WCI  24
PINE RIDGE     CLEAR     35  29  78 NW3       29.93R
SPEARFISH      FAIR      48  28  46 W12       29.88S
WINNER         FAIR      34  20  56 SE13      29.94F WCI  25
$$

SDZ004>011-016>023-039-040-280200-
NORTHEAST SOUTH DAKOTA

CITY           SKY/WX    TMP DP  RH WIND       PRES   REMARKS
ABERDEEN       CLOUDY    15   8  73 SE16      30.10F WCI  -1
WATERTOWN      LGT SNOW  11   4  73 SE16      30.12F WCI  -6
SISSETON         N/A      5   0  79 S16       30.19F WCI -14
$$

SDZ017-020-022-023-036>040-048>070-280200-
SOUTHEAST SOUTH DAKOTA

CITY           SKY/WX    TMP DP  RH WIND       PRES   REMARKS
SIOUX FALLS    CLOUDY    13   4  67 SE16      30.21F WCI  -3
HURON          MOCLDY    14   6  70 SE16G26   30.09F WCI  -2
CHAMBERLAIN    CLOUDY    24  15  70 SE15G22   29.99F WCI  11
MITCHELL       MOCLDY    17  10  74 SE21G30   30.11F WCI   0
YANKTON        CLOUDY    19   9  63 SE12G17   30.21R WCI   7
$$

ABBREVIATIONS USED IN REMARKS
   TC - TEMPERATURE IN CELSIUS
  WCI - WIND CHILL INDEX
   HX - HEAT INDEX
  VSB - VISIBILITY




USA.gov is the U.S. government's official web portal to all federal, state and local government web resources and services.